Vertical_Velocity
-3 4 1 -1 3 -1 4 2 1 3 2 5 -0 -3 -2 -3 -5 -3 0 5 3 -2 2 3 0 -5 -6 -3 -1 -1 1 -2 -0 0 1 0 1 -0 1 0 -3 -0 1 -15
5 -3 0 -1 -0 5 1 -0 -0 2 2 0 2 -3 1 -4 -1 -2 -4 -5 -1 4 2 -4 0 4 4 2 -1 0 0 -1 -1 -0 -0 -1 -2 -1 -0 1 3 -6 -2 -16
-0 -1 2 2 -1 2 5 3 0 -1 0 4 -0 5 -1 -2 -0 -5 0 -1 -3 -5 2 3 3 -3 -2 -1 -0 1 0 -2 -2 -6 -1 -0 -4 -3 0 3 -1 -3 -26 0
2 2 -0 0 -2 -2 2 3 1 5 -1 1 5 4 2 5 1 0 -0 -3 2 -2 -6 -2 -2 2 4 1 -1 -1 -4 -5 -3 -1 -1 -2 -2 -1 5 -4 5 -1 -14 3
1 1 -0 -0 2 -1 -1 1 4 0 4 4 -2 4 1 3 2 7 2 -0 -0 -4 5 3 -3 -4 -2 1 1 0 1 1 1 -3 2 2 -8 0 6 -1 4 -6 9 -29
1 2 1 -1 2 2 2 6 -1 3 1 1 6 -3 -1 1 2 0 0 8 -1 4 5 -3 -1 -2 3 1 -1 -3 -2 -2 0 -11 1 3 -8 -11 2 0 -5 5 -5 3
2 -1 3 2 -2 4 0 -1 3 1 -6 2 1 0 4 0 1 1 0 1 2 4 3 0 4 2 3 1 4 2 -2 6 7 -2 7 1 -3 -4 -2 -0 -1 2 2 0
-5 1 -1 -0 4 -0 1 1 1 3 -6 -1 2 2 0 3 0 -2 0 2 4 3 2 0 -1 -3 1 -6 2 0 4 8 2 -1 -3 -6 -15 -3 1 -0 -2 -3 3 3
-4 -2 -2 -2 -2 1 2 2 3 3 2 -9 0 4 4 -1 4 4 -3 -0 1 -0 1 3 0 -6 -2 -1 -1 -5 1 5 8 4 1 -3 -2 -4 -6 -2 -6 -4 1 0
-3 -3 -3 1 0 -0 -0 2 3 3 -0 2 -2 3 0 3 2 2 1 3 4 6 -1 1 -0 -8 -1 -5 -5 -7 -0 0 -7 4 -1 -3 0 3 3 6 -14 -3 0 1
-2 -2 -3 -3 -3 -2 6 -1 -0 2 1 -1 -1 -2 1 -1 -1 4 1 3 -2 -1 4 0 -1 -5 -2 2 -1 -5 -3 4 -5 11 3 -11 -4 4 4 3 0 1 3 4
-0 0 -1 -3 -4 -2 -0 5 5 4 -1 -1 -5 -2 4 4 5 1 2 -2 2 8 -1 -0 3 -2 1 2 -4 3 -1 -5 -4 -7 -3 1 1 -2 -2 -0 1 4 4 7
-0 -1 2 1 1 -1 1 1 1 2 -1 4 5 7 6 3 1 5 1 -1 5 -3 -4 -5 0 -2 -2 -4 -11 6 -4 3 -1 10 -6 2 3 3 7 11 5 -2 -4 -2
-1 -4 2 2 4 6 4 -2 -0 -1 -2 -5 1 2 5 4 7 3 4 4 10 6 16 18 17 10 4 2 -1 0 3 12 9 7 3 9 11 10 4 -4 -4 -3 -1 2
1 0 3 -5 3 -3 -1 -1 0 0 4 -6 0 0 -2 -1 -2 -2 2 11 15 6 5 7 5 2 10 7 7 -2 -6 -4 2 1 7 3 -0 -2 -1 1 1 -1 -0 -1
-3 -4 -1 -1 1 -4 1 -3 -4 10 16 7 3 -4 -3 -3 0 1 -2 -0 0 18 24 14 2 -1 6 10 15 11 13 5 -1 -4 1 3 0 -1 -0 2 2 2 -0 -2
-0 -0 -2 -1 -1 1 0 3 -6 1 2 1 -5 0 2 -0 -2 -5 -5 -5 -2 24 4 6 14 5 5 5 9 6 4 0 4 0 4 -0 1 2 1 0 -2 -1 -2 -2
-1 2 -0 -1 -0 -0 0 1 7 4 -0 3 -3 -1 -1 -2 3 10 17 11 16 -4 -2 2 -2 8 7 -1 7 5 3 2 0 1 0 -1 -2 -2 -2 -2 -1 -1 -1 -0
-2 -2 -2 -2 -0 0 -1 -1 2 0 10 3 -4 -4 -6 -5 -2 2 -4 1 -3 2 7 9 7 4 -0 5 3 1 1 3 3 -0 -1 -2 0 0 -0 0 -0 -4 -3 -3
-1 -2 -2 -3 -2 1 -2 4 1 4 6 8 0 -0 14 -6 -1 1 -1 -2 2 2 1 -0 9 4 10 9 7 8 6 4 3 5 2 1 -2 -4 -2 -2 -3 -3 -3 -3
-1 -3 -2 -1 -0 0 0 2 1 2 2 -2 -2 3 4 1 -1 -2 -4 -1 -3 -2 -0 11 2 8 10 7 4 -1 -4 -4 -6 -4 -7 -6 -3 -5 -4 0 -1 -3 -3 -5
-2 -2 1 1 -1 -0 -1 -0 1 4 3 3 2 1 3 1 4 4 5 4 3 3 7 -1 -3 16 10 2 -2 -1 3 4 3 1 1 -1 -2 -4 -5 -4 -1 -0 -1 -0
-1 -3 -2 -1 1 0 1 0 2 3 4 3 1 -0 1 0 1 -1 -2 -1 -1 3 -0 -0 7 -1 -4 -5 -2 0 -2 -1 -1 -1 0 -0 -0 -0 -1 0 0 -2 0 2
-0 -0 -1 -1 0 1 3 3 2 1 -1 1 1 0 -1 -1 -1 -1 -0 0 1 -1 -2 5 4 4 4 4 2 0 1 -0 -1 -3 -3 -3 -4 -1 -0 -3 -3 -3 -3 -1
-2 -1 -2 5 2 1 -1 -1 0 1 -1 -2 -2 -2 -1 -1 -1 0 1 -1 -2 0 5 0 -0 -1 -1 -0 -1 -2 -2 -1 1 0 1 1 -2 -2 1 -2 -2 -3 -1 -0
-1 -1 -1 2 0 2 -0 -1 -1 -1 -1 -0 -1 -1 -1 -1 -2 0 -0 0 1 5 1 0 0 1 -1 -1 -2 -4 -4 -4 -3 -2 -3 -2 -2 -2 -1 1 -1 0 -2 -1
-1 2 2 1 3 2 2 -0 -1 -0 1 -1 -1 -0 -1 1 0 -0 -1 2 2 0 1 0 -2 -3 -3 -2 -3 -2 -2 -1 -1 -1 -0 -1 -3 -2 -2 1 2 1 0 -0
Height
3093 3092 3092 3091 3091 3091 3090 3088 3088 3087 3085 3086 3082 3082 3081 3081 3081 3079 3078 3078 3076 3076 3077 3078 3079 3081 3083 3083 3085 3086 3087 3088 3090 3092 3091 3092 3093 3094 3097 3099 3099 3098 3096 3091
3089 3089 3088 3087 3086 3086 3086 3085 3084 3084 3083 3082 3080 3079 3079 3078 3079 3078 3078 3078 3077 3077 3076 3078 3077 3078 3079 3080 3082 3083 3084 3085 3087 3088 3090 3089 3089 3091 3092 3094 3094 3091 3094 3088
3082 3083 3083 3082 3081 3081 3082 3081 3080 3079 3079 3078 3078 3077 3075 3075 3075 3075 3076 3076 3076 3077 3077 3076 3076 3076 3078 3078 3079 3081 3082 3082 3083 3083 3084 3086 3087 3088 3088 3089 3088 3083 3081 3078
3074 3074 3075 3076 3077 3077 3077 3076 3075 3074 3073 3074 3073 3074 3073 3072 3071 3071 3071 3072 3073 3074 3075 3076 3076 3076 3076 3077 3078 3080 3080 3079 3080 3080 3081 3081 3081 3080 3080 3077 3076 3075 3069 3069
3065 3066 3066 3068 3069 3070 3071 3070 3071 3069 3069 3067 3069 3068 3068 3068 3068 3068 3067 3068 3069 3070 3071 3072 3072 3073 3074 3074 3074 3074 3075 3074 3073 3072 3075 3073 3071 3070 3068 3068 3066 3061 3062 3060
3058 3057 3057 3058 3060 3061 3061 3062 3062 3062 3061 3061 3062 3062 3063 3063 3063 3064 3063 3063 3063 3065 3066 3066 3067 3068 3070 3069 3069 3071 3071 3070 3069 3066 3065 3064 3062 3057 3057 3056 3056 3055 3052 3054
3050 3049 3049 3050 3050 3052 3053 3054 3055 3054 3052 3054 3055 3056 3056 3056 3058 3058 3058 3059 3059 3060 3060 3060 3061 3061 3061 3062 3062 3064 3063 3064 3064 3060 3060 3056 3045 3046 3047 3046 3046 3046 3043 3043
3038 3038 3039 3041 3042 3042 3043 3044 3046 3045 3041 3046 3047 3048 3049 3049 3049 3050 3052 3052 3053 3053 3054 3055 3054 3054 3053 3053 3053 3054 3055 3057 3056 3055 3051 3040 3043 3042 3042 3041 3038 3040 3038 3037
3028 3026 3028 3028 3030 3032 3033 3034 3035 3035 3033 3034 3039 3039 3040 3041 3042 3042 3042 3045 3045 3046 3047 3048 3045 3046 3046 3045 3044 3047 3048 3049 3051 3047 3045 3037 3032 3034 3035 3035 3031 3033 3031 3031
3018 3017 3017 3017 3017 3018 3020 3022 3024 3024 3021 3024 3029 3029 3030 3031 3033 3033 3034 3036 3037 3037 3037 3038 3038 3037 3039 3036 3035 3039 3040 3039 3038 3038 3035 3026 3027 3028 3027 3029 3029 3027 3027 3028
3009 3007 3006 3006 3006 3007 3007 3006 3008 3010 3007 3009 3015 3018 3021 3021 3022 3023 3024 3028 3025 3028 3027 3028 3027 3024 3026 3023 3023 3025 3028 3031 3028 3030 3030 3024 3021 3021 3024 3022 3020 3022 3023 3024
3001 3000 2998 2996 2996 2996 2996 2997 2995 2994 2996 2997 2999 3003 3008 3009 3009 3011 3011 3013 3016 3020 3017 3015 3016 3014 3012 3012 3012 3014 3019 3019 3019 3021 3016 3015 3015 3015 3016 3016 3016 3017 3018 3019
2996 2995 2993 2990 2989 2987 2987 2986 2985 2985 2984 2986 2986 2989 2992 2993 2994 2996 2999 2998 3001 3003 3005 3006 3007 3005 3003 3004 3003 3006 3006 3007 3007 3010 3009 3009 3008 3008 3009 3009 3009 3009 3009 3009
2991 2990 2988 2987 2985 2982 2980 2978 2977 2977 2977 2976 2977 2977 2979 2980 2982 2984 2986 2988 2991 2993 2995 2994 2994 2994 2993 2994 2997 2998 2999 2999 3000 3001 3002 3003 3002 3001 3001 3001 3002 3002 3001 3001
2985 2983 2982 2981 2979 2978 2976 2973 2971 2970 2973 2969 2970 2969 2969 2970 2971 2973 2976 2979 2981 2982 2984 2984 2985 2986 2989 2987 2989 2989 2990 2991 2993 2994 2995 2996 2995 2995 2995 2995 2995 2995 2996 2995
2981 2978 2975 2974 2973 2971 2971 2970 2968 2968 2966 2965 2964 2963 2964 2965 2966 2967 2967 2969 2971 2975 2976 2975 2976 2977 2981 2980 2980 2980 2981 2982 2985 2986 2987 2988 2989 2990 2990 2990 2990 2990 2990 2990
2975 2973 2971 2969 2967 2965 2964 2966 2965 2964 2962 2961 2960 2959 2959 2959 2960 2961 2962 2963 2965 2968 2968 2970 2971 2971 2972 2974 2975 2977 2977 2978 2980 2981 2982 2983 2984 2985 2986 2986 2986 2986 2986 2986
2969 2968 2966 2963 2961 2960 2959 2959 2959 2960 2960 2960 2958 2957 2958 2957 2957 2958 2958 2959 2960 2961 2964 2966 2967 2968 2967 2971 2974 2974 2975 2976 2978 2979 2979 2981 2981 2982 2982 2983 2983 2982 2982 2982
2965 2963 2961 2959 2957 2955 2954 2955 2956 2957 2961 2957 2957 2957 2956 2955 2955 2954 2955 2955 2956 2960 2960 2963 2965 2965 2967 2972 2972 2973 2974 2974 2975 2975 2976 2977 2979 2980 2980 2980 2979 2978 2977 2976
2961 2960 2958 2956 2955 2953 2953 2953 2953 2954 2954 2954 2955 2955 2955 2956 2954 2954 2956 2955 2957 2958 2961 2962 2963 2968 2971 2973 2973 2973 2973 2973 2974 2974 2975 2976 2976 2977 2976 2974 2973 2971 2969 2967
2959 2957 2956 2954 2952 2952 2951 2952 2952 2952 2952 2952 2952 2953 2952 2953 2954 2954 2956 2956 2957 2958 2961 2962 2966 2971 2973 2973 2973 2972 2972 2972 2972 2972 2972 2972 2971 2971 2969 2968 2965 2962 2959 2955
2958 2956 2953 2951 2951 2951 2952 2952 2952 2952 2952 2951 2952 2952 2952 2953 2953 2953 2954 2955 2957 2957 2959 2960 2969 2973 2972 2971 2971 2972 2972 2972 2971 2970 2968 2967 2965 2962 2960 2956 2953 2949 2946 2943
2956 2955 2953 2952 2953 2952 2952 2952 2952 2952 2951 2952 2952 2953 2953 2954 2954 2954 2955 2955 2957 2958 2959 2965 2972 2972 2972 2972 2971 2971 2969 2967 2966 2964 2962 2959 2956 2954 2950 2947 2944 2940 2936 2933
2956 2955 2954 2954 2953 2954 2954 2954 2954 2954 2954 2954 2954 2954 2954 2954 2955 2955 2956 2958 2959 2960 2964 2969 2971 2970 2969 2968 2967 2965 2964 2961 2959 2956 2954 2951 2948 2945 2942 2938 2934 2930 2926 2923
2956 2956 2956 2956 2955 2955 2955 2956 2956 2956 2956 2956 2956 2956 2956 2955 2956 2957 2959 2960 2962 2966 2969 2969 2968 2967 2966 2964 2962 2960 2958 2956 2953 2950 2946 2943 2939 2936 2933 2929 2925 2921 2917 2914
2957 2957 2958 2958 2958 2958 2958 2958 2957 2957 2956 2956 2956 2956 2956 2957 2958 2959 2960 2963 2967 2969 2968 2967 2966 2965 2963 2960 2958 2955 2952 2948 2945 2943 2939 2935 2931 2927 2924 2921 2917 2913 2909 2905
2959 2959 2959 2959 2959 2959 2959 2958 2958 2957 2957 2956 2956 2957 2958 2960 2961 2963 2965 2968 2968 2967 2966 2965 2963 2961 2957 2955 2951 2948 2945 2942 2938 2935 2931 2927 2923 2919 2916 2913 2910 2906 2902 2898